sat.trackr.live / text

‹ back to catalog

ONEWEB-0371

NORAD 49297 · 2021-090U

PAYLOAD ACTIVE UNKNOWN

§ Identity

Operator
Country
UK
Launch date
2021-10-14
Launch site
VOSTO
Launch vehicle
Mass (kg)
RCS (m²)

Purposes: comms

External: N2YO · Heavens-Above · Gunter

§ Orbital elements

Epoch: 2026-09-20T00:52:49.354176Z

Period
109.11 min
Inclination
87.9107°
Eccentricity
0.0002160
Mean motion
13.19726223 rev/d
Perigee alt
1,184.1 km
Apogee alt
1,187.4 km
Semi-major
7,563.9 km
B*
1.3507e-5
RAAN
286.0714°
Arg perigee
91.5875°
Mean anomaly
268.5505°
Rev number
23,896

§ Raw data

ONEWEB-03711 49297U 21090U   26263.03668234  .00000018  00000+0  13507-4 0  99922 49297  87.9107 286.0714 0002160  91.5875 268.5505 13.19726223238962

JSON: /api/v1/satellites/49297 · /tle

For live sub-satellite position, see the globe view (requires WebGL).

§ Visibility from observer

Set your observer location to see the next 7 days of passes ≥ 10°. The values pass through the URL so the page stays shareable.

No JS? Fill the form by hand. The geolocation button needs JavaScript.